Location: Prairie State College
(41.5244°N, 87.6382°W)
Time: 02:30:31
(UTC-06:00)

Amateur Radio Satellites - All Passes

Search period start: 23 January 2017 02:00
Search period end: 24 January 2017 02:00
Location: Prairie State College, 41.5244°N, 87.6382°W

Satellite Date Start Highest point End Downlink Frequencies (MHz)
Time Altitude Azimuth
KKS-1 23 Jan 02:02:57 02:05:01 13° 62° (ENE) 02:07:05 437.445
Oscar 19 23 Jan 02:06:53 02:11:43 42° 291° (WNW) 02:16:32 437.125/150
BEESAT 23 Jan 02:10:55 02:15:32 51° 260° (W) 02:20:12 436.000
SWISSCUBE 23 Jan 02:13:00 02:17:31 44° 261° (W) 02:22:06 437.505
AUBIESAT-1 23 Jan 02:18:05 02:21:33 26° 65° (ENE) 02:24:50 437.475
CUSAT 1 23 Jan 02:25:12 02:30:28 64° 94° (E) 02:37:18 437.405
RS-15 23 Jan 02:29:25 02:39:19 27° 341° (NNW) 02:49:21 29.354- 29.394
YUBILEINY 23 Jan 02:32:42 02:39:41 28° 278° (W) 02:46:40 435.215
CUBESAT XI-V 23 Jan 02:36:50 02:39:26 15° 63° (ENE) 02:42:02 437.345
Gurwin Techsat 1B 23 Jan 02:43:56 02:48:48 37° 292° (WNW) 02:53:38 435.225
PHONESAT 2.4 23 Jan 02:45:02 02:47:14 66° 183° (S) 02:49:26 2401.200-2431.200
STARS 23 Jan 02:47:10 02:50:01 17° 64° (ENE) 02:52:51 437.465
ITAMSAT 1 23 Jan 02:55:40 03:00:50 61° 102° (ESE) 03:05:59 435.822/435.867
ISS 23 Jan 03:01:50 03:05:03 62° 33° (NNE) 03:08:16 145.825
M-CUBED/EXP-1 PRIME 23 Jan 03:17:24 03:21:39 53° 254° (WSW) 03:25:36 437.505
MOZHAYETS 4 23 Jan 03:18:38 03:22:47 34° 263° (W) 03:26:59
AIST 2 23 Jan 03:18:50 03:23:05 71° 55° (NE) 03:27:19 435.215
ITUPSAT 1 23 Jan 03:19:24 03:21:06 12° 270° (W) 03:22:49 437.325
Cosmos 2491 23 Jan 03:23:31 03:30:36 27° 293° (WNW) 03:37:46 435.465 / 435.565
BRITE-PL 23 Jan 03:31:41 03:32:31 10° 86° (E) 03:33:20 437.365/2234.400
KKS-1 23 Jan 03:36:37 03:41:02 65° 258° (WSW) 03:45:28 437.445
AO-7 23 Jan 03:44:36 03:53:02 82° 107° (ESE) 04:01:23 29.400- 29.500
DANDE 23 Jan 03:45:20 03:49:23 85° 280° (W) 03:54:56 436.750
AUBIESAT-1 23 Jan 03:52:16 03:55:51 27° 258° (WSW) 03:59:17 437.475
CUSAT 1 23 Jan 04:08:54 04:13:15 21° 299° (WNW) 04:18:21 437.405
CUBESAT XI-V 23 Jan 04:11:36 04:16:16 63° 259° (W) 04:20:58 437.345
Cosmos 2499 23 Jan 04:14:46 04:15:32 10° 57° (ENE) 04:16:18 435.465 / 435.565
PHONESAT 2.4 23 Jan 04:18:58 04:20:53 25° 199° (SSW) 04:22:49 2401.200-2431.200
STARS 23 Jan 04:21:48 04:26:00 46° 260° (W) 04:30:13 437.465
ITAMSAT 1 23 Jan 04:36:20 04:39:48 18° 298° (WNW) 04:43:17 435.822/435.867
HORYU 2 23 Jan 04:37:27 04:40:58 22° 95° (E) 04:44:28 437.375
ISS 23 Jan 04:39:14 04:41:11 15° 229° (SW) 04:43:08 145.825
O/OREOS (USA 219) 23 Jan 04:45:12 04:48:50 25° 103° (ESE) 04:52:29 437.305
RS-15 23 Jan 04:47:37 04:57:31 26° 17° (NNE) 05:07:18 29.354- 29.394
GOMX 1 23 Jan 04:55:49 04:59:40 30° 96° (E) 05:03:21 467.674
AIST 2 23 Jan 04:59:39 05:00:58 11° 252° (WSW) 05:02:17 435.215
BRITE-PL 23 Jan 05:06:54 05:11:42 73° 285° (WNW) 05:16:06 437.365/2234.400
NOAA 15 23 Jan 05:10:23 05:14:17 20° 93° (E) 05:18:09 137.62
Cubesat XI-IV 23 Jan 05:12:09 05:16:03 20° 93° (E) 05:19:57 437.490
DOVE 4 23 Jan 05:19:54 05:23:01 20° 94° (E) 05:26:07 437.250
GONETS M04 23 Jan 05:22:45 05:30:34 34° 70° (ENE) 05:38:21
LilacSat-2 23 Jan 05:24:24 05:27:41 26° 96° (E) 05:30:58 437.200
STRAND 1 23 Jan 05:32:01 05:36:24 30° 67° (ENE) 05:40:48 437.568
AO-7 23 Jan 05:38:35 05:44:53 25° 307° (NW) 05:51:10 29.400- 29.500
NOAA 18 23 Jan 05:40:54 05:44:51 20° 93° (E) 05:48:47 137.9125
SO-50 23 Jan 05:43:29 05:46:17 16° 109° (ESE) 05:49:05 436.795
HO-68 23 Jan 06:01:46 06:05:17 14° 88° (E) 06:08:47 435.675
Cosmos 2499 23 Jan 06:03:10 06:10:16 66° 80° (E) 06:17:17 435.465 / 435.565
CUTE-I 23 Jan 06:06:51 06:12:11 66° 102° (ESE) 06:17:30 437.470
HORYU 2 23 Jan 06:13:32 06:17:33 34° 291° (WNW) 06:21:35 437.375
O/OREOS (USA 219) 23 Jan 06:24:06 06:28:05 31° 300° (WNW) 06:32:05 437.305
CINEMA 3 23 Jan 06:25:58 06:29:29 25° 95° (E) 06:33:05 145.822/145.860
GOMX 1 23 Jan 06:34:12 06:37:36 22° 294° (WNW) 06:40:53 467.674
NOAA 15 23 Jan 06:49:11 06:54:20 51° 289° (WNW) 06:59:25 137.62
Cubesat XI-IV 23 Jan 06:51:14 06:56:24 51° 289° (WNW) 07:01:34 437.490
CUTE 1.7 + AOD 2 23 Jan 06:53:22 06:57:05 28° 95° (E) 07:00:45 437.475
PCSat 23 Jan 06:53:42 06:55:32 12° 35° (NE) 06:57:20 145.827
DOVE 4 23 Jan 06:57:08 07:00:48 31° 290° (WNW) 07:04:27 437.250
LilacSat-2 23 Jan 06:58:47 07:01:51 22° 291° (WNW) 07:04:54 437.200
CUBEBUG 2 23 Jan 07:00:49 07:03:20 15° 92° (E) 07:05:53 437.445
RS-15 23 Jan 07:01:20 07:13:33 58° 48° (NE) 07:25:17 29.354- 29.394
STRAND 1 23 Jan 07:10:56 07:15:29 33° 263° (W) 07:20:04 437.568
GONETS M04 23 Jan 07:19:13 07:27:45 56° 270° (W) 07:36:17
NOAA 18 23 Jan 07:20:30 07:25:49 54° 289° (WNW) 07:31:07 137.9125
SO-50 23 Jan 07:21:36 07:26:17 62° 305° (NW) 07:30:55 436.795
UWE-3 23 Jan 07:22:27 07:25:15 16° 92° (E) 07:28:04 435.000/436.395/437.385
CANX-2 23 Jan 07:22:51 07:27:10 71° 101° (ESE) 07:31:26 2200.000
COMPASS 1 23 Jan 07:27:07 07:30:46 28° 96° (E) 07:34:24 437.405
SEEDS 23 Jan 07:27:27 07:31:33 44° 99° (E) 07:35:36 437.485
ZACube-1 23 Jan 07:34:43 07:36:49 13° 91° (E) 07:38:55 437.345
AAUSAT CUBESAT 2 23 Jan 07:35:14 07:38:48 27° 95° (E) 07:42:20 437.432
HO-68 23 Jan 07:46:46 07:54:00 84° 107° (ESE) 08:01:09 435.675
CUTE-I 23 Jan 07:48:15 07:51:41 18° 299° (WNW) 07:55:06 437.470
UNISAT 6 23 Jan 07:50:22 07:51:48 12° 62° (ENE) 07:53:15 437.425
Cosmos 2499 23 Jan 07:57:45 08:02:37 20° 279° (W) 08:07:28 435.465 / 435.565
TIGRISAT 23 Jan 08:01:48 08:04:03 14° 63° (ENE) 08:06:20 435.000
PRISM 23 Jan 08:02:02 08:06:04 50° 73° (ENE) 08:10:07 437.425
CINEMA 3 23 Jan 08:03:01 08:06:36 27° 290° (WNW) 08:10:15 145.822/145.860
Oscar 11 23 Jan 08:04:11 08:07:37 22° 94° (E) 08:11:01 145.826/435.025
ANTELSAT 23 Jan 08:16:43 08:19:58 22° 67° (ENE) 08:23:13 437.575/2403.000
DELFI C3 23 Jan 08:26:17 08:27:37 11° 90° (E) 08:28:56 145.870
CUTE 1.7 + AOD 2 23 Jan 08:29:15 08:32:48 26° 292° (WNW) 08:36:20 437.475
PCSat 23 Jan 08:34:49 08:40:10 56° 57° (ENE) 08:45:28 145.827
CUBEBUG 2 23 Jan 08:35:57 08:40:12 51° 286° (WNW) 08:44:33 437.445
JAS-2 23 Jan 08:36:19 08:39:49 17° 57° (ENE) 08:43:33 435.910
FUNcube-1 23 Jan 08:44:00 08:48:25 69° 101° (ESE) 08:52:54 145.935
HUMSAT D 23 Jan 08:53:15 08:55:35 14° 91° (E) 08:57:56 437.325/437.525
UWE-3 23 Jan 08:57:40 09:01:54 47° 287° (WNW) 09:06:13 435.000/436.395/437.385
CANX-2 23 Jan 09:01:02 09:02:24 11° 298° (WNW) 09:03:46 2200.000
COMPASS 1 23 Jan 09:02:48 09:06:12 24° 292° (WNW) 09:09:34 437.405
SEEDS 23 Jan 09:04:10 09:06:52 17° 295° (WNW) 09:09:34 437.485
SO-50 23 Jan 09:06:04 09:07:41 12° 325° (NW) 09:09:17 436.795
ZACube-1 23 Jan 09:09:04 09:13:25 59° 286° (WNW) 09:17:50 437.345
AAUSAT CUBESAT 2 23 Jan 09:10:43 09:14:10 25° 291° (WNW) 09:17:34 437.432
RS-15 23 Jan 09:14:25 09:25:48 47° 251° (WSW) 09:36:47 29.354- 29.394
UNISAT 6 23 Jan 09:23:43 09:27:56 68° 258° (WSW) 09:32:13 437.425
HO-68 23 Jan 09:35:55 09:40:51 20° 305° (NW) 09:45:46 435.675
TIGRISAT 23 Jan 09:36:10 09:40:18 52° 260° (W) 09:44:28 435.000
PRISM 23 Jan 09:39:32 09:41:38 13° 268° (W) 09:43:43 437.425
Oscar 11 23 Jan 09:39:52 09:43:47 33° 290° (WNW) 09:47:40 145.826/435.025
ANTELSAT 23 Jan 09:52:40 09:56:28 32° 263° (W) 10:00:20 437.575/2403.000
DELFI C3 23 Jan 09:58:50 10:02:44 53° 286° (WNW) 10:06:36 145.870
QB50P1 23 Jan 10:11:36 10:15:27 37° 71° (ENE) 10:19:19 145.935-145.965
POLYITAN 1 23 Jan 10:16:43 10:20:40 42° 72° (ENE) 10:24:38 437.675
QB50P2 23 Jan 10:18:00 10:22:01 47° 73° (ENE) 10:26:04 145.880/145.840
JAS-2 23 Jan 10:18:43 10:24:06 71° 259° (W) 10:30:05 435.910
PCSat 23 Jan 10:19:09 10:23:06 21° 254° (WSW) 10:27:03 145.827
FUNcube-1 23 Jan 10:22:14 10:24:06 13° 297° (WNW) 10:25:58 145.935
HUMSAT D 23 Jan 10:27:18 10:31:28 50° 287° (WNW) 10:35:38 437.325/437.525
ESTCUBE 1 23 Jan 10:36:50 10:40:37 25° 95° (E) 10:44:21 437.505/2401.250
POPSAT HIP 1 23 Jan 10:38:29 10:42:39 74° 76° (ENE) 10:46:51 437.405
DUCHIFAT 1 23 Jan 10:45:08 10:49:17 76° 76° (ENE) 10:53:27 145.980
NANOSAT C BR1 23 Jan 10:52:26 10:56:36 81° 259° (WSW) 11:00:48 145.865
BY70-1 23 Jan 10:56:01 10:59:14 89° 287° (WNW) 11:02:11 436.1900
BUGSAT 1 23 Jan 11:06:36 11:10:27 45° 73° (ENE) 11:14:18 437.445
CUBEBUG 1 23 Jan 11:11:41 11:15:38 34° 97° (E) 11:19:33 437.445
CUSAT 1 23 Jan 11:19:27 11:21:51 11° 53° (NE) 11:24:13 437.405
AO-85 23 Jan 11:27:54 11:29:29 12° 109° (ESE) 11:31:03 145.980
Cosmos 2491 23 Jan 11:34:56 11:42:42 33° 70° (ENE) 11:50:25 435.465 / 435.565
AISAT 23 Jan 11:36:45 11:40:54 41° 99° (E) 11:45:01 437.250
Oscar 19 23 Jan 11:44:50 11:49:32 36° 68° (ENE) 11:54:15 437.125/150
YUBILEINY 23 Jan 11:45:14 11:48:55 13° 74° (ENE) 11:52:36 435.215
QB50P1 23 Jan 11:48:26 11:51:20 18° 267° (W) 11:54:16 145.935-145.965
POLYITAN 1 23 Jan 11:54:04 11:56:38 16° 268° (W) 11:59:14 437.675
QB50P2 23 Jan 11:55:46 11:58:04 14° 268° (W) 12:00:23 145.880/145.840
VELOX 1 23 Jan 12:09:46 12:14:10 90° 330° (NNW) 12:18:34 145.980
ESTCUBE 1 23 Jan 12:13:25 12:17:23 31° 292° (WNW) 12:21:20 437.505/2401.250
SPROUT 23 Jan 12:13:30 12:17:46 77° 102° (ESE) 12:22:02 437.525
UKube-1 23 Jan 12:23:17 12:27:23 42° 99° (E) 12:31:28 .
Gurwin Techsat 1B 23 Jan 12:25:17 12:30:19 45° 70° (ENE) 12:35:22 435.225
50 SAT 23 Jan 12:26:29 12:30:00 63° 285° (WNW) 12:33:29 437.505
DX 1 23 Jan 12:30:45 12:35:05 72° 101° (ESE) 12:39:24 434.975-435.025
AIST 1 23 Jan 12:33:38 12:37:14 26° 89° (E) 12:40:49
ITAMSAT 1 23 Jan 12:38:00 12:40:12 13° 58° (ENE) 12:42:24 435.822/435.867
DANDE 23 Jan 12:39:38 12:44:55 19° 62° (ENE) 12:50:22 436.750
BUGSAT 1 23 Jan 12:43:55 12:46:03 14° 268° (W) 12:48:11 437.445
Cosmos 2504 23 Jan 12:46:30 12:51:57 19° 80° (E) 12:57:11 435.465 / 435.565
CUBEBUG 1 23 Jan 12:48:25 12:51:42 22° 294° (WNW) 12:54:58 437.445
AO-7 23 Jan 12:53:12 12:59:46 27° 54° (NE) 13:06:22 29.400- 29.500
CUSAT 1 23 Jan 12:57:55 13:05:45 54° 74° (ENE) 13:12:44 437.405
AO-85 23 Jan 13:04:41 13:09:25 79° 304° (WNW) 13:13:48 145.980
AISAT 23 Jan 13:13:59 13:17:03 19° 295° (WNW) 13:20:07 437.250
Oscar 19 23 Jan 13:24:24 13:28:52 28° 265° (W) 13:33:21 437.125/150
TISAT 1 23 Jan 13:29:27 13:33:38 74° 102° (ESE) 13:37:49 437.305
Cosmos 2491 23 Jan 13:31:25 13:39:53 55° 270° (W) 13:48:23 435.465 / 435.565
YUBILEINY 23 Jan 13:35:16 13:44:01 73° 94° (E) 13:52:50 435.215
ITUPSAT 1 23 Jan 13:39:19 13:42:39 18° 93° (E) 13:45:57 437.325
SPROUT 23 Jan 13:52:22 13:53:03 10° 299° (WNW) 13:53:45 437.525
BEESAT 3 23 Jan 13:57:53 13:58:46 11° 108° (ESE) 13:59:39 437.485
UKube-1 23 Jan 14:00:11 14:03:05 18° 296° (WNW) 14:06:00 .
Gurwin Techsat 1B 23 Jan 14:06:19 14:10:27 23° 267° (W) 14:14:36 435.225
DX 1 23 Jan 14:09:15 14:10:40 11° 299° (WNW) 14:12:06 434.975-435.025
BEESAT 23 Jan 14:10:45 14:15:14 38° 98° (E) 14:19:41 436.000
AIST 1 23 Jan 14:11:03 14:14:44 26° 286° (WNW) 14:18:23
SWISSCUBE 23 Jan 14:12:40 14:17:18 45° 99° (E) 14:21:53 437.505
SO-50 23 Jan 14:13:22 14:16:28 18° 41° (NE) 14:19:32 436.795
ITAMSAT 1 23 Jan 14:13:44 14:18:54 88° 255° (WSW) 14:24:08 435.822/435.867
DANDE 23 Jan 14:20:39 14:28:44 79° 80° (E) 14:37:03 436.750
Cosmos 2504 23 Jan 14:35:41 14:44:21 86° 277° (W) 14:52:29 435.465 / 435.565
BRITE-PL 23 Jan 14:40:09 14:43:55 18° 63° (ENE) 14:47:36 437.365/2234.400
CUSAT 1 23 Jan 14:40:26 14:47:15 33° 274° (W) 14:53:27 437.405
AO-7 23 Jan 14:43:23 14:51:45 76° 254° (WSW) 15:00:11 29.400- 29.500
BEESAT 2 23 Jan 14:48:21 14:50:57 17° 111° (ESE) 14:53:35 435.950
AO-85 23 Jan 14:48:35 14:50:27 12° 321° (NW) 14:52:17 145.980
O/OREOS (USA 219) 23 Jan 14:54:03 14:58:27 50° 64° (ENE) 15:02:50 437.305
TISAT 1 23 Jan 15:07:56 15:08:39 10° 299° (WNW) 15:09:23 437.305
MOZHAYETS 4 23 Jan 15:12:49 15:17:24 54° 100° (E) 15:21:56
ITUPSAT 1 23 Jan 15:16:05 15:20:43 48° 289° (WNW) 15:25:19 437.325
KKS-1 23 Jan 15:27:53 15:31:24 23° 95° (E) 15:34:54 437.445
AUBIESAT-1 23 Jan 15:31:15 15:32:47 13° 98° (E) 15:34:19 437.475
BEESAT 3 23 Jan 15:31:57 15:35:48 64° 305° (NW) 15:39:45 437.485
YUBILEINY 23 Jan 15:34:45 15:41:41 25° 295° (WNW) 15:48:41 435.215
HORYU 2 23 Jan 15:35:46 15:39:09 22° 66° (ENE) 15:42:32 437.375
BEESAT 23 Jan 15:49:00 15:52:47 24° 295° (WNW) 15:56:33 436.000
SWISSCUBE 23 Jan 15:51:14 15:54:45 21° 296° (WNW) 15:58:15 437.505
CUTE-I 23 Jan 15:51:53 15:54:48 15° 60° (ENE) 15:57:43 437.470
SO-50 23 Jan 15:52:54 15:57:23 67° 240° (WSW) 16:01:48 436.795
GOMX 1 23 Jan 16:02:51 16:07:47 40° 71° (ENE) 16:12:30 467.674
DANDE 23 Jan 16:04:41 16:10:43 24° 276° (W) 16:16:53 436.750
LilacSat-2 23 Jan 16:07:40 16:09:39 14° 65° (ENE) 16:11:38 437.200
CUBESAT XI-V 23 Jan 16:08:14 16:12:25 31° 96° (E) 16:16:33 437.345
STARS 23 Jan 16:10:59 16:14:49 29° 97° (E) 16:18:38 437.465
BRITE-PL 23 Jan 16:16:08 16:21:49 69° 259° (W) 16:27:23 437.365/2234.400
BEESAT 2 23 Jan 16:24:38 16:28:24 42° 308° (NW) 16:32:13 435.950
DOVE 4 23 Jan 16:24:58 16:28:56 25° 68° (ENE) 16:32:43 437.250
NOAA 15 23 Jan 16:30:14 16:34:57 34° 67° (ENE) 16:39:42 137.62
M-CUBED/EXP-1 PRIME 23 Jan 16:30:33 16:33:52 72° 290° (WNW) 16:37:06 437.505
HO-68 23 Jan 16:32:46 16:35:40 13° 50° (NE) 16:38:34 435.675
Cosmos 2504 23 Jan 16:33:33 16:38:50 18° 297° (WNW) 16:43:57 435.465 / 435.565
Cubesat XI-IV 23 Jan 16:34:01 16:38:46 34° 67° (ENE) 16:43:31 437.490
O/OREOS (USA 219) 23 Jan 16:34:43 16:37:24 16° 260° (W) 16:40:05 437.305
AO-7 23 Jan 16:41:47 16:45:47 14° 272° (W) 16:49:49 29.400- 29.500
MOZHAYETS 4 23 Jan 16:51:11 16:54:06 17° 296° (WNW) 16:57:01
KKS-1 23 Jan 17:04:02 17:08:00 33° 291° (WNW) 17:11:58 437.445
AUBIESAT-1 23 Jan 17:04:23 17:07:23 31° 294° (WNW) 17:10:20 437.475
NOAA 18 23 Jan 17:06:54 17:11:58 39° 68° (ENE) 17:17:02 137.9125
HORYU 2 23 Jan 17:11:27 17:15:28 35° 262° (W) 17:19:32 437.375
AIST 2 23 Jan 17:18:18 17:20:23 14° 109° (ESE) 17:22:29 435.215
CINEMA 3 23 Jan 17:28:03 17:31:30 24° 69° (ENE) 17:34:54 145.822/145.860
CUTE-I 23 Jan 17:28:53 17:34:11 77° 257° (WSW) 17:39:31 437.470
LilacSat-2 23 Jan 17:39:59 17:43:34 42° 261° (W) 17:47:12 437.200
GOMX 1 23 Jan 17:41:30 17:45:54 26° 265° (W) 17:50:10 467.674
CUBESAT XI-V 23 Jan 17:45:46 17:49:40 27° 292° (WNW) 17:53:32 437.345
CUTE 1.7 + AOD 2 23 Jan 17:46:27 17:49:38 21° 67° (ENE) 17:52:51 437.475
STARS 23 Jan 17:47:28 17:51:02 25° 293° (WNW) 17:54:37 437.465
CUBEBUG 2 23 Jan 18:00:25 18:02:03 12° 63° (ENE) 18:03:39 437.445
DOVE 4 23 Jan 18:01:59 18:06:28 35° 262° (W) 18:10:45 437.250
NOAA 15 23 Jan 18:10:01 18:14:41 31° 264° (W) 18:19:24 137.62
Cubesat XI-IV 23 Jan 18:14:10 18:18:48 31° 264° (W) 18:23:30 437.490
HO-68 23 Jan 18:14:55 18:22:00 63° 69° (ENE) 18:29:06 435.675
CANX-2 23 Jan 18:15:22 18:19:29 49° 73° (ENE) 18:23:37 2200.000
COMPASS 1 23 Jan 18:18:14 18:21:20 20° 67° (ENE) 18:24:28 437.405
SEEDS 23 Jan 18:19:10 18:22:53 31° 70° (ENE) 18:26:39 437.485
UWE-3 23 Jan 18:20:51 18:22:43 13° 63° (ENE) 18:24:33 435.000/436.395/437.385
GONETS M04 23 Jan 18:24:18 18:32:01 37° 85° (E) 18:39:47
AAUSAT CUBESAT 2 23 Jan 18:25:54 18:28:52 19° 66° (ENE) 18:31:50 437.432
ZACube-1 23 Jan 18:33:03 18:33:14 10° 61° (ENE) 18:33:25 437.345
Cosmos 2499 23 Jan 18:38:49 18:46:54 57° 92° (E) 18:54:25 435.465 / 435.565
NOAA 18 23 Jan 18:48:01 18:52:41 28° 264° (W) 18:57:22 137.9125
AIST 2 23 Jan 18:54:19 18:58:22 56° 306° (NW) 19:02:30 435.215
Oscar 11 23 Jan 18:59:32 19:02:29 18° 65° (ENE) 19:05:27 145.826/435.025
CINEMA 3 23 Jan 19:04:43 19:08:32 29° 264° (W) 19:12:15 145.822/145.860
STRAND 1 23 Jan 19:20:25 19:25:36 83° 103° (ESE) 19:30:46 437.568
CUTE 1.7 + AOD 2 23 Jan 19:21:22 19:25:15 34° 263° (W) 19:29:10 437.475
CUBEBUG 2 23 Jan 19:34:04 19:38:10 60° 260° (W) 19:42:16 437.445
FUNcube-1 23 Jan 19:39:35 19:43:34 50° 73° (ENE) 19:47:37 145.935
ISS 23 Jan 19:42:45 19:44:55 17° 132° (SE) 19:47:06 145.825
HUMSAT D 23 Jan 19:46:33 19:47:13 10° 61° (ENE) 19:47:52 437.325/437.525
COMPASS 1 23 Jan 19:52:49 19:56:39 34° 263° (W) 20:00:31 437.405
CANX-2 23 Jan 19:53:18 19:55:36 14° 269° (W) 19:57:55 2200.000
UWE-3 23 Jan 19:54:37 19:58:40 56° 260° (W) 20:02:47 435.000/436.395/437.385
SEEDS 23 Jan 19:55:17 19:58:36 22° 266° (W) 20:01:56 437.485
AO-85 23 Jan 19:57:47 19:59:00 11° 38° (NE) 20:00:13 145.980
AAUSAT CUBESAT 2 23 Jan 20:00:11 20:04:03 37° 263° (W) 20:07:58 437.432
HO-68 23 Jan 20:04:30 20:10:10 25° 267° (W) 20:15:53 435.675
ZACube-1 23 Jan 20:04:45 20:08:53 75° 259° (W) 20:13:04 437.345
GONETS M04 23 Jan 20:20:15 20:28:34 48° 285° (WNW) 20:37:01
Cosmos 2499 23 Jan 20:33:20 20:40:21 30° 289° (WNW) 20:46:59 435.465 / 435.565
Oscar 11 23 Jan 20:34:13 20:38:18 41° 262° (W) 20:42:26 145.826/435.025
DELFI C3 23 Jan 20:43:50 20:47:51 84° 73° (ENE) 20:51:54 145.870
STRAND 1 23 Jan 21:01:41 21:04:04 13° 301° (WNW) 21:06:27 437.568
BY70-1 23 Jan 21:10:40 21:12:42 16° 67° (ENE) 21:14:48 436.1900
UNISAT 6 23 Jan 21:15:16 21:18:57 24° 95° (E) 21:22:40 437.425
ISS 23 Jan 21:17:54 21:21:06 56° 328° (NNW) 21:24:19 145.825
HUMSAT D 23 Jan 21:18:05 21:22:11 73° 259° (WSW) 21:26:22 437.325/437.525
FUNcube-1 23 Jan 21:18:13 21:20:07 13° 270° (W) 21:22:03 145.935
PRISM 23 Jan 21:18:15 21:22:23 81° 105° (ESE) 21:26:27 437.425
RS-15 23 Jan 21:25:56 21:35:50 33° 103° (ESE) 21:46:03 29.354- 29.394
TIGRISAT 23 Jan 21:27:12 21:31:09 30° 96° (E) 21:35:10 435.000
JAS-2 23 Jan 21:27:21 21:32:34 20° 90° (E) 21:37:56 435.910
AO-85 23 Jan 21:36:07 21:40:02 88° 57° (ENE) 21:43:57 145.980
ESTCUBE 1 23 Jan 21:36:31 21:40:11 25° 67° (ENE) 21:43:52 437.505/2401.250
ANTELSAT 23 Jan 21:43:09 21:47:30 47° 99° (E) 21:51:54 437.575/2403.000
CUBEBUG 1 23 Jan 22:07:39 22:11:28 30° 69° (ENE) 22:15:17 437.445
BEESAT 3 23 Jan 22:13:29 22:14:15 10° 37° (NE) 22:15:01 437.485
POPSAT HIP 1 23 Jan 22:25:06 22:26:37 12° 90° (E) 22:28:08 437.405
DUCHIFAT 1 23 Jan 22:31:02 22:32:32 12° 90° (E) 22:34:01 145.980
AISAT 23 Jan 22:33:57 22:38:02 37° 70° (ENE) 22:42:08 437.250
NANOSAT C BR1 23 Jan 22:37:42 22:40:17 16° 92° (E) 22:42:50 145.865
BY70-1 23 Jan 22:40:07 22:42:42 24° 265° (W) 22:45:26 436.1900
UNISAT 6 23 Jan 22:51:41 22:55:39 32° 290° (WNW) 22:59:42 437.425
ISS 23 Jan 22:55:54 22:58:07 17° 347° (NNW) 23:00:21 145.825
50 SAT 23 Jan 23:00:48 23:04:14 47° 74° (ENE) 23:07:42 437.505
TIGRISAT 23 Jan 23:04:01 23:07:43 26° 292° (WNW) 23:11:29 435.000
BEESAT 2 23 Jan 23:05:26 23:07:45 15° 41° (NE) 23:10:05 435.950
VELOX 1 23 Jan 23:06:40 23:11:07 81° 74° (ENE) 23:15:34 145.980
SPROUT 23 Jan 23:06:41 23:10:51 57° 74° (ENE) 23:15:02 437.525
JAS-2 23 Jan 23:10:46 23:18:08 83° 286° (WNW) 23:26:00 435.910
ESTCUBE 1 23 Jan 23:12:45 23:16:49 33° 263° (W) 23:20:56 437.505/2401.250
PCSat 23 Jan 23:16:27 23:21:38 49° 113° (ESE) 23:26:52 145.827
UKube-1 23 Jan 23:17:42 23:21:40 36° 70° (ENE) 23:25:39 .
ANTELSAT 23 Jan 23:20:52 23:23:50 18° 295° (WNW) 23:26:51 437.575/2403.000
DX 1 23 Jan 23:26:00 23:30:18 63° 74° (ENE) 23:34:38 434.975-435.025
PHONESAT 2.4 23 Jan 23:28:15 23:29:30 14° 155° (SSE) 23:30:44 2401.200-2431.200
QB50P1 23 Jan 23:31:11 23:35:24 69° 101° (E) 23:39:37 145.935-145.965
RS-15 23 Jan 23:35:19 23:47:14 75° 306° (NW) 23:59:40 29.354- 29.394
POLYITAN 1 23 Jan 23:36:36 23:40:51 80° 101° (E) 23:45:07 437.675
QB50P2 23 Jan 23:38:00 23:42:16 89° 114° (ESE) 23:46:31 145.880/145.840
CUBEBUG 1 23 Jan 23:44:05 23:47:43 25° 265° (W) 23:51:21 437.445
YUBILEINY 23 Jan 23:45:42 23:53:42 36° 71° (ENE) 00:01:34 435.215
BEESAT 3 23 Jan 23:48:35 23:52:35 73° 56° (ENE) 23:56:34 437.485
Oscar 19 23 Jan 23:58:25 00:00:05 11° 89° (E) 00:01:46 437.125/150
POPSAT HIP 1 23 Jan 23:58:35 00:02:45 59° 286° (WNW) 00:06:55 437.405
DUCHIFAT 1 24 Jan 00:04:25 00:08:34 59° 286° (WNW) 00:12:42 145.980
AISAT 24 Jan 00:11:19 00:14:36 20° 266° (W) 00:17:54 437.250
NANOSAT C BR1 24 Jan 00:12:11 00:16:11 44° 288° (WNW) 00:20:12 145.865
AIST 1 24 Jan 00:16:56 00:21:13 75° 83° (E) 00:25:26
TISAT 1 24 Jan 00:20:49 00:24:53 54° 73° (ENE) 00:28:57 437.305
BUGSAT 1 24 Jan 00:22:57 00:27:01 79° 103° (ESE) 00:31:06 437.445
Cosmos 2504 24 Jan 00:29:08 00:35:36 32° 71° (ENE) 00:41:52 435.465 / 435.565
ISS 24 Jan 00:33:36 00:35:34 15° 8° (N) 00:37:32 145.825
Cosmos 2491 24 Jan 00:36:38 00:44:21 37° 85° (E) 00:52:05 435.465 / 435.565
50 SAT 24 Jan 00:37:15 00:37:43 10° 269° (W) 00:38:10 437.505
BEESAT 2 24 Jan 00:41:58 00:46:00 70° 239° (WSW) 00:50:00 435.950
Gurwin Techsat 1B 24 Jan 00:42:18 00:45:48 18° 91° (E) 00:49:16 435.225
SPROUT 24 Jan 00:45:27 00:47:07 12° 270° (W) 00:48:47 437.525
ITUPSAT 1 24 Jan 00:46:11 00:49:51 23° 65° (ENE) 00:53:32 437.325
UKube-1 24 Jan 00:54:39 00:57:48 20° 266° (W) 01:00:59 .
JAS-2 24 Jan 00:57:34 01:02:14 19° 302° (WNW) 01:07:05 435.910
PCSat 24 Jan 01:00:43 01:05:16 27° 312° (NW) 01:09:51 145.827
PHONESAT 2.4 24 Jan 01:00:48 01:02:57 49° 170° (S) 01:05:07 2401.200-2431.200
DX 1 24 Jan 01:05:18 01:06:53 12° 270° (W) 01:08:28 434.975-435.025
QB50P1 24 Jan 01:09:14 01:10:36 11° 298° (WNW) 01:11:58 145.935-145.965
BEESAT 24 Jan 01:17:06 01:21:36 45° 71° (ENE) 01:26:09 436.000
SWISSCUBE 24 Jan 01:19:02 01:23:39 53° 72° (ENE) 01:28:18 437.505
Oscar 19 24 Jan 01:34:50 01:40:01 82° 286° (WNW) 01:45:10 437.125/150
AIST 2 24 Jan 01:38:17 01:40:30 14° 39° (NE) 01:42:43 435.215
YUBILEINY 24 Jan 01:42:19 01:50:42 51° 271° (W) 01:59:00 435.215
M-CUBED/EXP-1 PRIME 24 Jan 01:43:58 01:46:02 14° 60° (ENE) 01:48:02 437.505
